This demonstration page uses our WeatherBlox Daily Observations layout. Learn more.

Hourly Observations for June 22, 2015

Temp ( °F °C ) Dew Point ( °F °C ) Humidity (%) Winds ( mph kmh ) Pressure ( in mb ) Visibility ( mi km ) Precip ( " mm )
12:15 am 00:15 Clear 81 27 66 19 62 62 S 13 20 29.65 1004 10 16.09344 0 0
12:35 am 00:35 Clear 81 27 66 19 62 62 S 15 24 29.65 1004 10 16.09344 0 0
12:55 am 00:55 Clear 81 27 66 19 62 62 S 15 24 29.65 1004 10 16.09344 0 0
1:15 am 01:15 Clear 79 26 66 19 65 65 S 16 26 29.65 1004 10 16.09344 0 0
1:35 am 01:35 Clear 79 26 66 19 65 65 S 16 26 29.65 1004 10 16.09344 0 0
1:55 am 01:55 Clear 79 26 66 19 65 65 SSW 20 31 29.65 1004 10 16.09344 0 0
2:15 am 02:15 Clear 79 26 66 19 65 65 S 17 28 29.62 1003 10 16.09344 0 0
2:35 am 02:35 Clear 79 26 66 19 65 65 SSW 18 30 29.62 1003 10 16.09344 0 0
2:55 am 02:55 Clear 77 25 66 19 69 69 SSW 18 30 29.62 1003 10 16.09344 0 0
3:15 am 03:15 Clear 77 25 66 19 69 69 SSW 18 30 29.62 1003 10 16.09344 0 0
3:35 am 03:35 Clear 77 25 66 19 69 69 SSW 20 31 29.59 1002 10 16.09344 0 0
3:55 am 03:55 Clear 77 25 66 19 69 69 SSW 21 33 29.59 1002 10 16.09344 0 0
4:15 am 04:15 Clear 77 25 66 19 69 69 SSW 21 33 29.59 1002 10 16.09344 0 0
4:35 am 04:35 Clear 77 25 66 19 69 69 SSW 17 28 29.59 1002 10 16.09344 0 0
4:55 am 04:55 Clear 77 25 66 19 69 69 SSW 15 24 29.59 1002 10 16.09344 0 0
5:15 am 05:15 Clear 77 25 66 19 69 69 SSW 16 26 29.59 1002 10 16.09344 0 0
5:35 am 05:35 Clear 75 24 66 19 74 74 SSW 16 26 29.59 1002 10 16.09344 0 0
5:55 am 05:55 Clear 75 24 66 19 74 74 SSW 12 19 29.59 1002 10 16.09344 0 0
6:15 am 06:15 Sunny 75 24 66 19 74 74 S 10 17 29.65 1004 10 16.09344 0 0
6:35 am 06:35 Sunny 73 23 64 18 74 74 SSW 7 11 29.65 1004 10 16.09344 0 0
6:55 am 06:55 Sunny 73 23 64 18 74 74 SW 6 9 29.65 1004 10 16.09344 0 0
7:15 am 07:15 Sunny 73 23 64 18 74 74 SSW 8 13 29.65 1004 10 16.09344 0 0
7:35 am 07:35 Sunny 75 24 64 18 69 69 WSW 7 11 29.65 1004 10 16.09344 0 0
7:55 am 07:55 Sunny 75 24 66 19 74 74 SW 7 11 29.65 1004 10 16.09344 0 0
8:15 am 08:15 Sunny 77 25 66 19 69 69 SW 8 13 29.65 1004 10 16.09344 0 0
8:35 am 08:35 Sunny 79 26 66 19 65 65 WSW 7 11 29.62 1003 10 16.09344 0 0
8:55 am 08:55 Sunny 79 26 66 19 65 65 W 8 13 29.65 1004 10 16.09344 0 0
9:15 am 09:15 Sunny 81 27 66 19 62 62 WNW 9 15 29.65 1004 10 16.09344 0 0
9:35 am 09:35 Sunny 82 28 66 19 58 58 NW 12 19 29.65 1004 10 16.09344 0 0
9:55 am 09:55 Sunny 81 27 66 19 62 62 NNW 12 19 29.65 1004 10 16.09344 0 0
10:15 am 10:15 Sunny 81 27 70 21 70 70 NNW 17 28 29.65 1004 10 16.09344 0 0
10:35 am 10:35 Sunny 81 27 70 21 70 70 N 18 30 29.68 1005 10 16.09344 0 0
10:55 am 10:55 Sunny 81 27 70 21 70 70 N 22 35 29.68 1005 10 16.09344 0 0
11:15 am 11:15 Sunny 81 27 68 20 66 66 NNW 21 33 29.71 1006 10 16.09344 0 0
11:35 am 11:35 Sunny 81 27 68 20 66 66 NNW 20 31 29.71 1006 10 16.09344 0 0
11:55 am 11:55 Sunny 81 27 68 20 66 66 N 18 30 29.74 1007 10 16.09344 0 0
12:15 pm 12:15 Sunny 81 27 66 19 62 62 NNW 20 31 29.74 1007 10 16.09344 0 0
12:35 pm 12:35 Sunny 81 27 63 17 54 54 N 17 28 29.77 1008 10 16.09344 0 0
12:55 pm 12:55 Sunny 81 27 63 17 54 54 N 20 31 29.77 1008 10 16.09344 0 0
1:15 pm 13:15 Sunny 82 28 61 16 48 48 N 22 35 29.77 1008 10 16.09344 0 0
1:35 pm 13:35 Sunny 82 28 61 16 48 48 N 21 33 29.8 1009 10 16.09344 0 0
1:55 pm 13:55 Sunny 82 28 61 16 48 48 N 23 37 29.8 1009 10 16.09344 0 0
2:15 pm 14:15 Sunny 82 28 61 16 48 48 N 17 28 29.8 1009 10 16.09344 0 0
2:35 pm 14:35 Sunny 82 28 61 16 48 48 N 21 33 29.8 1009 10 16.09344 0 0
2:55 pm 14:55 Sunny 84 29 61 16 45 45 N 23 37 29.83 1010 10 16.09344 0 0
3:15 pm 15:15 Sunny 82 28 61 16 48 48 N 21 33 29.83 1010 10 16.09344 0 0
3:35 pm 15:35 Sunny 82 28 63 17 51 51 N 22 35 29.83 1010 10 16.09344 0 0
3:55 pm 15:55 Sunny 82 28 63 17 51 51 N 20 31 29.83 1010 10 16.09344 0 0
4:15 pm 16:15 Sunny 82 28 61 16 48 48 N 23 37 29.83 1010 10 16.09344 0 0
4:35 pm 16:35 Sunny 82 28 59 15 45 45 N 18 30 29.85 1011 10 16.09344 0 0
4:55 pm 16:55 Sunny 82 28 59 15 45 45 N 18 30 29.85 1011 10 16.09344 0 0
5:15 pm 17:15 Sunny 82 28 59 15 45 45 N 21 33 29.85 1011 10 16.09344 0 0
5:35 pm 17:35 Sunny 82 28 57 14 42 42 N 17 28 29.85 1011 10 16.09344 0 0
5:55 pm 17:55 Sunny 81 27 57 14 45 45 N 13 20 29.85 1011 10 16.09344 0 0
6:15 pm 18:15 Sunny 81 27 57 14 45 45 NNE 18 30 29.85 1011 10 16.09344 0 0
6:35 pm 18:35 Sunny 81 27 57 14 45 45 NNE 15 24 29.85 1011 10 16.09344 0 0
6:55 pm 18:55 Sunny 79 26 55 13 45 45 N 21 33 29.91 1013 10 16.09344 0 0
7:15 pm 19:15 Sunny 79 26 55 13 45 45 NNE 20 31 29.91 1013 10 16.09344 0 0
7:35 pm 19:35 Sunny 79 26 54 12 42 42 NNE 18 30 29.91 1013 10 16.09344 0 0
7:55 pm 19:55 Sunny 77 25 54 12 44 44 NNE 12 19 29.91 1013 10 16.09344 0 0
8:15 pm 20:15 Sunny 75 24 55 13 50 50 NNE 15 24 29.91 1013 10 16.09344 0 0
8:35 pm 20:35 Sunny 73 23 54 12 50 50 NNE 12 19 29.97 1015 10 16.09344 0 0
8:55 pm 20:55 Sunny 72 22 52 11 50 50 NNE 9 15 29.97 1015 10 16.09344 0 0
9:15 pm 21:15 Clear 70 21 52 11 53 53 NNE 8 13 29.97 1015 10 16.09344 0 0
9:35 pm 21:35 Clear 66 19 52 11 60 60 N 7 11 30 1016 10 16.09344 0 0
9:55 pm 21:55 Clear 66 19 54 12 64 64 N 6 9 30 1016 10 16.09344 0 0
11:55 pm 23:55 Clear 59 15 52 11 77 77 N 9 15 30.06 1018 10 16.09344 0 0

Powered by AerisWeather